SCP
0 0 0 0 0 0 0 0 -0 0 -0 -0 -0 0 0 0 0 0 0 0 0 0 0 0 0 0 0 0 0 0 0 0 0 0 0 0 0 0 0 0 0 0 0
0 0 0 0 0 0 0 0 0 0 0 0 0 0 0 0 0 0 0 0 0 0 0 0 0 0 0 0 0 0 0 0 0 0 0 0 0 0 0 0 0 0 0
0 0 0 0 0 0 0 0 0 0 0 0 0 0 0 0 0 0 0 0 0 0 0 0 0 0 0 0 0 0 0 0 0 0 0 0 0 0 0 0 0 0 0
0 0 0 0 0 0 0 0 0 0 0 0 0 0 0 0 0 0 0 0 0 0 0 0 0 0 0 0 0 0 0 0 0 0 0 0 0 0 0 0 0 0 0
0 0 0 0 0 0 0 0 0 0 0 0 0 0 0 0 0 0 0 0 0 0 0 0 0 0 0 0 0 0 0 0 0 0 0 0 0 0 0 0 0 0 0
0 0 0 0 1 1 0 0 0 0 0 0 0 0 0 0 0 0 0 0 0 0 0 0 0 0 0 0 0 0 0 0 0 0 0 0 0 0 0 0 0 0 0
0 0 1 1 1 0 0 0 0 0 0 0 0 0 0 0 0 0 0 0 0 0 0 0 0 0 0 0 0 0 0 0 0 0 0 0 0 0 0 0 0 0 0
0 0 1 1 0 0 0 0 0 0 0 0 0 0 0 0 0 0 0 0 0 0 0 0 0 0 0 0 0 0 0 0 0 0 0 0 0 0 0 0 0 0 0
0 1 1 1 0 0 0 0 0 0 0 0 0 0 -0 0 0 0 0 0 0 0 0 0 0 0 0 0 0 0 0 0 0 0 0 0 0 0 0 0 0 0 0
0 0 1 1 0 0 0 0 0 0 0 0 0 0 0 0 0 0 0 0 0 0 0 0 0 0 0 0 0 0 0 0 0 0 0 0 0 0 0 0 0 0 0
0 0 0 0 0 0 0 0 0 0 0 0 0 0 -0 0 0 0 0 0 0 0 0 0 0 0 0 0 0 0 0 0 0 0 0 0 0 0 0 0 0 0 0
0 0 0 0 0 0 0 0 0 0 0 0 0 -0 -0 0 0 0 0 0 0 0 0 0 0 0 0 0 0 0 0 0 0 0 0 0 0 0 0 0 0 0 0
0 0 0 0 0 0 0 0 0 0 0 0 0 0 0 0 0 0 0 0 0 0 0 0 0 0 0 0 0 0 0 0 0 0 0 0 0 0 0 0 0 0 0
0 0 0 0 0 0 0 0 0 0 0 0 0 0 0 0 0 0 0 0 0 0 0 0 0 0 0 0 0 0 0 0 0 0 0 0 0 0 0 0 0 0 0
0 0 0 0 0 0 0 0 0 0 0 0 -0 -0 0 0 0 0 0 0 0 0 0 0 0 0 0 0 0 0 0 0 0 0 0 0 0 0 0 0 0 0 0
0 0 0 0 0 0 0 0 0 0 0 0 -0 -0 0 0 0 0 0 0 0 0 0 0 0 0 0 0 0 0 0 0 0 0 0 0 0 0 0 0 0 0 0
0 0 0 0 0 0 0 0 0 0 0 0 0 0 -0 0 0 0 0 0 0 0 0 0 0 0 0 0 0 0 0 0 0 0 0 0 0 0 0 0 0 0 0
0 0 0 0 0 0 0 0 0 0 0 0 0 0 0 0 0 0 0 0 0 0 0 0 0 0 0 0 0 0 0 0 0 0 0 0 0 0 0 0 0 0 0
-0 -0 0 0 0 0 0 0 0 0 0 0 0 0 0 0 0 0 0 0 0 0 0 0 0 0 0 0 0 0 0 0 0 0 0 0 0 0 0 0 0 0 0
0 -0 -0 -0 0 0 0 0 0 0 0 0 0 0 0 0 0 0 0 0 0 0 0 0 0 0 0 0 0 0 0 0 0 0 0 0 0 0 0 0 0 0 0
0 0 -0 -0 -0 0 0 0 0 0 0 0 0 0 0 0 0 0 0 0 0 0 0 0 0 0 0 0 0 0 0 0 0 0 0 0 0 0 0 0 0 0 0
0 0 0 0 0 -0 -0 -0 0 0 0 0 0 0 0 0 0 0 0 0 0 0 0 0 0 0 0 0 0 0 0 0 0 0 0 0 0 0 0 0 0 0 0
0 0 0 0 0 -0 0 0 0 0 0 0 0 0 0 0 0 0 0 0 0 0 0 0 0 0 0 0 0 0 0 0 0 0 0 0 0 0 0 0 0 0 0
0 0 0 0 0 0 0 0 0 0 0 0 0 0 0 0 0 0 0 0 0 0 0 0 0 0 0 0 0 0 0 0 0 0 0 0 0 0 0 0 0 0 0
0 0 0 0 0 0 0 0 0 0 0 0 0 0 0 0 0 0 0 0 0 0 0 0 0 0 0 0 0 0 0 0 0 0 0 0 0 0 0 0 0 0 0
0 0 0 0 0 0 0 0 0 0 0 0 0 0 0 0 0 0 0 0 0 0 0 0 0 0 0 0 0 0 0 0 0 0 0 0 0 0 0 0 0 0 0
Wind_Speed_500mb
32 35 40 36 34 30 28 29 31 29 25 21 19 17 15 17 15 18 18 21 26 27 29 28 25 21 21 24 26 29 31 34 38 42 33 27 32 31 29 20 20 19 18
30 27 36 37 37 35 32 34 34 36 30 27 22 20 21 21 19 15 13 14 17 23 23 22 22 25 29 29 30 30 35 37 40 42 40 34 41 36 28 19 22 24 22
34 25 33 39 39 34 30 36 38 34 28 26 27 24 21 24 21 18 18 17 15 22 24 24 18 22 24 27 28 29 30 30 35 41 39 39 41 38 33 29 27 27 24
40 35 35 38 40 30 28 32 35 37 34 31 30 30 25 24 23 21 21 21 21 17 20 20 18 22 33 28 25 26 27 29 34 37 39 41 45 41 40 32 33 33 27
45 40 32 37 37 28 23 25 26 33 31 28 29 29 25 21 20 21 21 24 23 25 22 21 23 25 27 25 30 28 23 23 22 25 31 45 48 48 46 41 34 29 27
38 38 30 34 38 31 30 34 32 32 32 29 28 30 30 32 32 28 26 26 28 24 22 20 23 25 24 20 21 18 10 12 10 21 26 29 42 52 50 42 37 34 34
43 45 40 29 38 41 44 31 8 26 36 37 36 41 40 45 42 40 40 34 31 30 24 22 22 22 21 21 16 14 13 14 11 14 20 24 29 41 45 46 44 40 36
54 47 47 35 44 52 56 48 38 44 48 60 47 57 60 51 54 47 43 38 32 31 32 28 22 18 16 16 14 13 16 18 15 13 16 18 18 23 30 31 35 36 35
45 50 57 52 54 61 62 46 36 41 45 72 69 67 75 64 55 53 43 43 36 33 32 27 23 17 15 18 14 9 11 18 21 19 16 17 14 19 25 34 39 40 43
21 34 48 54 60 68 66 62 57 54 60 48 81 79 82 67 59 56 47 45 38 34 34 31 26 22 17 19 16 14 12 8 7 10 11 13 15 16 16 21 28 37 41
31 35 36 37 48 58 66 72 74 72 68 60 70 79 91 72 67 58 49 43 39 33 39 39 35 28 22 20 19 14 14 15 12 11 9 6 9 10 8 12 15 23 31
34 34 28 25 35 49 54 71 77 75 64 67 78 65 66 65 65 54 44 37 36 35 37 38 35 30 26 22 21 19 18 18 17 16 17 12 8 5 3 5 8 10 13
30 34 35 32 32 42 48 56 57 50 52 61 45 57 67 68 61 46 38 35 34 35 36 35 32 30 28 27 22 24 23 22 22 20 17 17 16 16 17 17 19 19 19
32 30 31 29 28 33 33 41 44 36 41 56 46 47 59 54 48 42 41 36 32 35 38 36 32 29 27 29 27 23 21 21 23 25 24 24 25 25 23 24 22 21 30
31 30 28 32 33 32 30 33 17 20 24 33 29 39 28 41 46 39 40 28 30 33 36 37 34 32 29 27 26 29 27 25 27 27 27 27 28 30 30 31 32 33 35
27 31 26 31 27 29 29 22 10 16 12 13 35 31 41 46 42 37 31 25 28 33 35 33 33 32 29 26 24 23 21 28 26 23 22 24 24 25 25 27 27 26 29
38 31 22 20 23 33 29 31 27 24 27 33 49 46 40 38 35 30 35 35 36 39 35 30 28 27 28 21 20 23 19 23 23 27 24 17 18 18 15 18 24 26 28
28 31 28 23 19 21 21 26 32 27 26 31 38 39 35 40 35 33 39 35 35 32 31 29 31 26 21 20 18 17 17 20 21 23 22 19 20 18 19 18 17 20 21
29 32 38 26 24 20 15 20 19 19 22 34 40 40 41 44 43 39 36 33 31 30 30 27 22 18 15 12 10 11 11 15 13 12 12 8 5 3 2 1 2 3 2
17 20 21 26 23 22 8 10 23 25 31 38 43 40 40 35 38 39 34 28 30 32 31 24 19 15 14 12 14 14 11 7 3 1 1 2 1 3 7 7 6 6 9
17 16 20 22 15 17 19 9 15 22 32 31 32 36 35 38 39 40 33 25 23 30 25 17 15 18 18 14 10 10 9 9 8 6 8 9 8 8 8 7 5 7 14
14 12 12 16 13 7 6 7 4 23 30 36 38 35 35 32 31 21 20 23 31 33 26 27 24 16 17 16 15 12 13 12 10 8 6 4 5 7 9 11 9 9 13
10 7 6 7 9 10 16 17 16 9 20 29 35 40 31 26 32 18 23 25 28 27 25 19 13 12 12 11 10 9 7 6 6 6 6 6 6 9 9 12 14 16 19
2 0 2 4 2 3 2 6 19 14 22 21 39 35 25 29 34 34 31 26 23 20 14 11 17 18 15 12 9 5 4 3 4 4 6 8 11 12 13 14 13 16 19
11 8 6 4 2 9 7 10 11 22 31 37 34 35 38 40 39 33 30 24 19 21 23 20 18 17 16 11 7 5 4 4 5 7 9 11 13 14 16 18 19 21 25
15 13 11 10 6 13 12 14 16 22 35 31 33 39 35 27 26 26 27 29 29 26 23 22 19 16 12 9 8 6 5 5 5 6 6 9 11 14 17 20 24 26 29
Wind_Direction_500mb
215 220 222 223 228 231 239 238 229 227 231 227 230 242 247 252 262 258 256 254 254 251 249 250 252 257 254 253 242 245 242 242 254 254 251 240 226 225 224 231 217 200 198
219 225 223 223 226 230 241 236 233 231 227 224 228 240 238 226 227 230 236 253 268 261 256 250 255 250 257 257 252 249 246 250 248 251 247 236 222 219 220 222 203 204 205
224 230 224 220 223 228 235 227 229 227 233 245 251 243 236 225 228 234 235 246 276 266 263 253 259 274 278 280 267 262 261 260 254 251 250 236 222 218 216 209 208 212 214
229 228 223 222 221 224 238 237 229 231 230 234 238 242 232 226 230 225 238 236 253 270 266 264 252 274 291 281 271 271 272 267 256 251 248 244 227 214 212 219 211 208 211
231 235 238 227 223 223 223 237 250 253 260 273 270 239 221 230 232 236 241 252 258 255 272 251 251 265 284 277 278 278 270 259 251 238 233 230 215 206 217 223 222 222 217
239 247 254 236 231 237 232 227 234 250 260 259 269 249 244 243 246 253 256 258 261 256 256 259 240 255 268 283 278 265 252 254 258 219 209 220 223 211 216 221 220 219 221
275 256 254 246 238 232 233 206 251 278 262 252 256 252 241 250 252 256 259 257 260 247 237 249 254 249 256 268 288 239 220 215 225 245 247 250 231 224 223 222 224 228 234
251 256 256 251 247 258 235 236 252 238 264 243 260 249 243 236 248 253 256 258 259 244 242 248 228 240 267 271 266 231 216 225 235 246 243 242 239 236 234 241 243 238 240
272 263 257 251 255 251 245 233 260 249 249 233 254 265 239 239 238 243 244 257 255 242 240 241 223 225 235 255 261 246 233 230 222 229 232 235 222 221 221 234 239 241 241
281 263 262 262 258 252 253 242 248 263 277 256 246 257 232 227 237 238 243 251 249 239 225 225 222 215 236 237 242 252 252 262 217 238 246 245 241 236 239 240 236 239 242
284 280 275 273 267 264 264 272 256 271 270 240 257 252 235 218 231 231 236 243 250 239 226 219 222 232 234 234 237 239 231 235 229 222 218 234 233 233 238 253 255 244 247
302 301 291 268 264 261 259 259 266 273 261 249 250 244 224 221 225 225 230 234 240 226 220 213 217 227 230 235 237 245 242 236 243 251 244 238 218 186 176 237 253 257 261
297 305 296 284 265 262 263 268 269 270 256 243 253 254 232 219 216 220 221 229 230 217 208 212 215 217 223 225 226 227 234 242 244 241 241 241 241 236 239 250 257 249 243
295 302 301 291 280 283 290 281 276 267 258 244 260 236 222 212 207 218 216 220 215 206 201 205 210 218 223 223 216 217 228 237 245 248 240 241 244 249 251 254 262 267 255
314 294 298 291 281 295 297 315 302 246 256 248 209 201 220 209 209 224 225 222 211 202 203 205 211 219 225 227 227 238 252 252 255 252 251 251 251 249 250 255 259 259 263
340 313 300 289 281 293 289 301 278 230 241 259 193 237 208 200 226 211 215 206 205 209 211 216 221 222 226 225 232 232 240 245 237 241 250 252 246 249 255 258 264 271 270
4 351 333 305 297 291 282 265 259 251 255 250 218 214 209 223 210 213 210 196 200 204 203 212 219 220 218 234 233 240 245 249 261 254 261 253 239 242 250 252 255 266 266
3 359 348 347 332 307 296 278 256 252 267 268 215 226 209 209 198 185 183 187 190 192 198 209 212 218 221 208 218 218 230 242 236 238 242 246 262 261 263 252 250 247 249
352 22 26 359 355 338 313 264 237 213 177 157 145 149 146 150 153 158 165 168 163 162 155 150 157 159 168 190 212 220 219 214 206 181 190 192 169 152 156 124 193 188 180
338 356 7 17 9 10 348 261 231 190 159 144 137 136 131 138 148 151 164 173 172 169 158 151 152 163 181 177 155 146 146 142 123 340 215 243 100 307 298 305 281 268 273
318 320 334 331 334 7 354 214 194 184 166 163 154 149 151 156 160 160 166 172 181 186 160 153 196 177 177 166 168 182 197 207 209 254 313 307 308 319 319 314 305 292 283
296 303 313 319 323 311 360 82 120 195 177 161 157 162 159 161 159 158 178 193 172 170 174 176 179 175 186 191 205 212 240 246 256 260 268 285 326 341 348 352 350 330 318
273 262 311 317 297 281 258 248 248 191 177 187 173 167 141 153 165 180 173 155 149 140 145 151 156 178 188 192 186 189 194 202 219 233 258 278 299 323 338 347 343 339 339
38 86 1 313 326 346 96 157 135 151 179 167 168 180 188 181 175 170 160 157 156 161 165 155 140 136 132 141 155 160 172 190 224 246 264 278 287 293 299 307 308 302 301
64 93 72 55 122 153 154 130 138 160 173 177 171 170 164 161 156 151 155 158 157 142 135 134 130 128 127 115 89 54 22 3 327 309 307 306 302 295 286 290 301 307 306
76 84 84 80 113 157 154 148 142 160 180 168 160 155 152 148 154 158 152 144 137 128 126 129 118 108 94 66 41 27 11 352 329 319 318 311 304 302 301 302 304 307 307
Wind_Speed_850mb
32 35 40 36 34 30 28 29 31 29 25 21 19 17 15 17 15 18 18 21 26 27 29 28 25 21 21 24 26 29 31 34 38 42 33 27 32 31 29 20 20 19 18
30 27 36 37 37 35 32 34 34 36 30 27 22 20 21 21 19 15 13 14 17 23 23 22 22 25 29 29 30 30 35 37 40 42 40 34 41 36 28 19 22 24 22
34 25 33 39 39 34 30 36 38 34 28 26 27 24 21 24 21 18 18 17 15 22 24 24 18 22 24 27 28 29 30 30 35 41 39 39 41 38 33 29 27 27 24
40 35 35 38 40 30 28 32 35 37 34 31 30 30 25 24 23 21 21 21 21 17 20 20 18 22 33 28 25 26 27 29 34 37 39 41 45 41 40 32 33 33 27
45 40 32 37 37 28 23 25 26 33 31 28 29 29 25 21 20 21 21 24 23 25 22 21 23 25 27 25 30 28 23 23 22 25 31 45 48 48 46 41 34 29 27
38 38 30 34 38 31 30 34 32 32 32 29 28 30 30 32 32 28 26 26 28 24 22 20 23 25 24 20 21 18 10 12 10 21 26 29 42 52 50 42 37 34 34
43 45 40 29 38 41 44 31 8 26 36 37 36 41 40 45 42 40 40 34 31 30 24 22 22 22 21 21 16 14 13 14 11 14 20 24 29 41 45 46 44 40 36
54 47 47 35 44 52 56 48 38 44 48 60 47 57 60 51 54 47 43 38 32 31 32 28 22 18 16 16 14 13 16 18 15 13 16 18 18 23 30 31 35 36 35
45 50 57 52 54 61 62 46 36 41 45 72 69 67 75 64 55 53 43 43 36 33 32 27 23 17 15 18 14 9 11 18 21 19 16 17 14 19 25 34 39 40 43
21 34 48 54 60 68 66 62 57 54 60 48 81 79 82 67 59 56 47 45 38 34 34 31 26 22 17 19 16 14 12 8 7 10 11 13 15 16 16 21 28 37 41
31 35 36 37 48 58 66 72 74 72 68 60 70 79 91 72 67 58 49 43 39 33 39 39 35 28 22 20 19 14 14 15 12 11 9 6 9 10 8 12 15 23 31
34 34 28 25 35 49 54 71 77 75 64 67 78 65 66 65 65 54 44 37 36 35 37 38 35 30 26 22 21 19 18 18 17 16 17 12 8 5 3 5 8 10 13
30 34 35 32 32 42 48 56 57 50 52 61 45 57 67 68 61 46 38 35 34 35 36 35 32 30 28 27 22 24 23 22 22 20 17 17 16 16 17 17 19 19 19
32 30 31 29 28 33 33 41 44 36 41 56 46 47 59 54 48 42 41 36 32 35 38 36 32 29 27 29 27 23 21 21 23 25 24 24 25 25 23 24 22 21 30
31 30 28 32 33 32 30 33 17 20 24 33 29 39 28 41 46 39 40 28 30 33 36 37 34 32 29 27 26 29 27 25 27 27 27 27 28 30 30 31 32 33 35
27 31 26 31 27 29 29 22 10 16 12 13 35 31 41 46 42 37 31 25 28 33 35 33 33 32 29 26 24 23 21 28 26 23 22 24 24 25 25 27 27 26 29
38 31 22 20 23 33 29 31 27 24 27 33 49 46 40 38 35 30 35 35 36 39 35 30 28 27 28 21 20 23 19 23 23 27 24 17 18 18 15 18 24 26 28
28 31 28 23 19 21 21 26 32 27 26 31 38 39 35 40 35 33 39 35 35 32 31 29 31 26 21 20 18 17 17 20 21 23 22 19 20 18 19 18 17 20 21
29 32 38 26 24 20 15 20 19 19 22 34 40 40 41 44 43 39 36 33 31 30 30 27 22 18 15 12 10 11 11 15 13 12 12 8 5 3 2 1 2 3 2
17 20 21 26 23 22 8 10 23 25 31 38 43 40 40 35 38 39 34 28 30 32 31 24 19 15 14 12 14 14 11 7 3 1 1 2 1 3 7 7 6 6 9
17 16 20 22 15 17 19 9 15 22 32 31 32 36 35 38 39 40 33 25 23 30 25 17 15 18 18 14 10 10 9 9 8 6 8 9 8 8 8 7 5 7 14
14 12 12 16 13 7 6 7 4 23 30 36 38 35 35 32 31 21 20 23 31 33 26 27 24 16 17 16 15 12 13 12 10 8 6 4 5 7 9 11 9 9 13
10 7 6 7 9 10 16 17 16 9 20 29 35 40 31 26 32 18 23 25 28 27 25 19 13 12 12 11 10 9 7 6 6 6 6 6 6 9 9 12 14 16 19
2 0 2 4 2 3 2 6 19 14 22 21 39 35 25 29 34 34 31 26 23 20 14 11 17 18 15 12 9 5 4 3 4 4 6 8 11 12 13 14 13 16 19
11 8 6 4 2 9 7 10 11 22 31 37 34 35 38 40 39 33 30 24 19 21 23 20 18 17 16 11 7 5 4 4 5 7 9 11 13 14 16 18 19 21 25
15 13 11 10 6 13 12 14 16 22 35 31 33 39 35 27 26 26 27 29 29 26 23 22 19 16 12 9 8 6 5 5 5 6 6 9 11 14 17 20 24 26 29
Wind_Direction_850mb
215 220 222 223 228 231 239 238 229 227 231 227 230 242 247 252 262 258 256 254 254 251 249 250 252 257 254 253 242 245 242 242 254 254 251 240 226 225 224 231 217 200 198
219 225 223 223 226 230 241 236 233 231 227 224 228 240 238 226 227 230 236 253 268 261 256 250 255 250 257 257 252 249 246 250 248 251 247 236 222 219 220 222 203 204 205
224 230 224 220 223 228 235 227 229 227 233 245 251 243 236 225 228 234 235 246 276 266 263 253 259 274 278 280 267 262 261 260 254 251 250 236 222 218 216 209 208 212 214
229 228 223 222 221 224 238 237 229 231 230 234 238 242 232 226 230 225 238 236 253 270 266 264 252 274 291 281 271 271 272 267 256 251 248 244 227 214 212 219 211 208 211
231 235 238 227 223 223 223 237 250 253 260 273 270 239 221 230 232 236 241 252 258 255 272 251 251 265 284 277 278 278 270 259 251 238 233 230 215 206 217 223 222 222 217
239 247 254 236 231 237 232 227 234 250 260 259 269 249 244 243 246 253 256 258 261 256 256 259 240 255 268 283 278 265 252 254 258 219 209 220 223 211 216 221 220 219 221
275 256 254 246 238 232 233 206 251 278 262 252 256 252 241 250 252 256 259 257 260 247 237 249 254 249 256 268 288 239 220 215 225 245 247 250 231 224 223 222 224 228 234
251 256 256 251 247 258 235 236 252 238 264 243 260 249 243 236 248 253 256 258 259 244 242 248 228 240 267 271 266 231 216 225 235 246 243 242 239 236 234 241 243 238 240
272 263 257 251 255 251 245 233 260 249 249 233 254 265 239 239 238 243 244 257 255 242 240 241 223 225 235 255 261 246 233 230 222 229 232 235 222 221 221 234 239 241 241
281 263 262 262 258 252 253 242 248 263 277 256 246 257 232 227 237 238 243 251 249 239 225 225 222 215 236 237 242 252 252 262 217 238 246 245 241 236 239 240 236 239 242
284 280 275 273 267 264 264 272 256 271 270 240 257 252 235 218 231 231 236 243 250 239 226 219 222 232 234 234 237 239 231 235 229 222 218 234 233 233 238 253 255 244 247
302 301 291 268 264 261 259 259 266 273 261 249 250 244 224 221 225 225 230 234 240 226 220 213 217 227 230 235 237 245 242 236 243 251 244 238 218 186 176 237 253 257 261
297 305 296 284 265 262 263 268 269 270 256 243 253 254 232 219 216 220 221 229 230 217 208 212 215 217 223 225 226 227 234 242 244 241 241 241 241 236 239 250 257 249 243
295 302 301 291 280 283 290 281 276 267 258 244 260 236 222 212 207 218 216 220 215 206 201 205 210 218 223 223 216 217 228 237 245 248 240 241 244 249 251 254 262 267 255
314 294 298 291 281 295 297 315 302 246 256 248 209 201 220 209 209 224 225 222 211 202 203 205 211 219 225 227 227 238 252 252 255 252 251 251 251 249 250 255 259 259 263
340 313 300 289 281 293 289 301 278 230 241 259 193 237 208 200 226 211 215 206 205 209 211 216 221 222 226 225 232 232 240 245 237 241 250 252 246 249 255 258 264 271 270
4 351 333 305 297 291 282 265 259 251 255 250 218 214 209 223 210 213 210 196 200 204 203 212 219 220 218 234 233 240 245 249 261 254 261 253 239 242 250 252 255 266 266
3 359 348 347 332 307 296 278 256 252 267 268 215 226 209 209 198 185 183 187 190 192 198 209 212 218 221 208 218 218 230 242 236 238 242 246 262 261 263 252 250 247 249
352 22 26 359 355 338 313 264 237 213 177 157 145 149 146 150 153 158 165 168 163 162 155 150 157 159 168 190 212 220 219 214 206 181 190 192 169 152 156 124 193 188 180
338 356 7 17 9 10 348 261 231 190 159 144 137 136 131 138 148 151 164 173 172 169 158 151 152 163 181 177 155 146 146 142 123 340 215 243 100 307 298 305 281 268 273
318 320 334 331 334 7 354 214 194 184 166 163 154 149 151 156 160 160 166 172 181 186 160 153 196 177 177 166 168 182 197 207 209 254 313 307 308 319 319 314 305 292 283
296 303 313 319 323 311 360 82 120 195 177 161 157 162 159 161 159 158 178 193 172 170 174 176 179 175 186 191 205 212 240 246 256 260 268 285 326 341 348 352 350 330 318
273 262 311 317 297 281 258 248 248 191 177 187 173 167 141 153 165 180 173 155 149 140 145 151 156 178 188 192 186 189 194 202 219 233 258 278 299 323 338 347 343 339 339
38 86 1 313 326 346 96 157 135 151 179 167 168 180 188 181 175 170 160 157 156 161 165 155 140 136 132 141 155 160 172 190 224 246 264 278 287 293 299 307 308 302 301
64 93 72 55 122 153 154 130 138 160 173 177 171 170 164 161 156 151 155 158 157 142 135 134 130 128 127 115 89 54 22 3 327 309 307 306 302 295 286 290 301 307 306
76 84 84 80 113 157 154 148 142 160 180 168 160 155 152 148 154 158 152 144 137 128 126 129 118 108 94 66 41 27 11 352 329 319 318 311 304 302 301 302 304 307 307